Location: Zihuatanejo
(17.6330°N, 101.5500°W)
Time: 16:44:46
(UTC-05:00)

Daily predictions for brighter satellites

Satellite Brightness Start Highest point End
(mag) Time Altitude Azimuth Time Altitude Azimuth Time Altitude Azimuth
Cosmos 1980 Rocket 3.5 20:15:13 10° SE 20:18:48 17° ESE 20:22:25 10° ENE
Meteor 2-21 Rocket 4.5 20:14:28 10° S 20:20:38 73° E 20:26:47 10° N
Cosmos 2369 4.1 20:16:28 10° SSW 20:22:05 72° WNW 20:27:45 10° NNE
GOES 2 Rocket 3.4 20:17:55 10° WNW 20:22:09 50° NNE 20:26:13 10° E
FREGAT/IRIS 3.3 20:23:19 10° SE 20:26:12 35° ENE 20:29:06 10° N
Cosmos 1821 Rocket 4.0 20:21:14 10° S 20:27:21 82° E 20:33:27 10° N
Meteor 2-4 Rocket 4.1 20:22:11 10° N 20:27:53 49° E 20:33:35 10° SSE
Okean 1-7 Rocket 4.4 20:25:48 10° NNW 20:30:05 56° W 20:34:25 10° S
Cosmos 1605 Rocket 4.3 20:24:37 10° SSE 20:30:37 44° E 20:36:32 10° NNE
SAR-Lupe-1 4.3 20:27:35 10° S 20:31:07 73° WSW 20:34:39 10° NNW
Meteor 2-14 Rocket 4.4 20:26:42 10° S 20:32:50 82° E 20:39:00 10° N
Cosmos 1656 3.6 20:28:24 10° S 20:34:02 74° ESE 20:39:37 10° NNE
Cosmos 1025 Rocket 2.9 20:29:58 10° N 20:34:16 71° E 20:38:31 10° S
Cosmos 468 Rocket 4.4 20:31:23 10° S 20:36:07 39° E 20:40:51 10° NNE
Cosmos 1455 Rocket 3.0 20:35:17 10° S 20:39:35 84° E 20:43:55 10° N
Cosmos 1975 3.6 20:36:37 10° SSE 20:40:16 32° E 20:43:56 10° NNE
CZ-3C R/B 4.1 18:03:46 10° WSW 20:46:54 81° N 20:55:35 14° E
GPS 2-14 Rocket1 3.7 20:44:38 10° SW 20:48:24 32° SSE 20:50:41 19° ESE
Meteor 1-29 4.2 20:45:20 10° N 20:48:40 45° WNW 20:52:00 10° SSW
Cosmos 1814 Rocket 4.3 20:43:45 10° S 20:48:50 45° E 20:53:52 10° NNE
Cosmos 1500 4.3 20:46:09 10° SE 20:49:09 23° E 20:52:07 10° NE
Cosmos 1892 Rocket 3.6 20:45:31 10° N 20:49:57 64° E 20:54:22 10° SSE
NOAA 12 4.1 20:46:09 10° SSE 20:51:23 86° WSW 20:56:38 10° NNW
SJ-6B 3.5 20:48:36 10° S 20:52:15 53° W 20:55:54 10° NNW
Resurs 1-3 3.7 20:53:34 10° SSE 20:57:49 52° ENE 21:02:05 10° N
Meteor 1-23 Rocket 4.3 20:52:43 10° N 20:58:26 87° W 21:04:13 10° S
Hubble Space Telescope 1.0 20:55:11 10° WNW 20:59:16 57° NNE 21:01:26 25° E
CZ-4B DEB 3.6 20:58:43 27° ESE 20:59:27 31° ENE 21:02:22 10° NNE
FengYun 1-2 T 4.4 20:54:14 10° SSE 20:59:41 51° ENE 21:05:06 10° N
Cosmos 2227 Rocket 2.7 20:56:53 10° N 21:02:05 37° ENE 21:05:06 22° ESE
Cosmos 1777 Rocket 4.1 20:58:09 10° NNW 21:03:25 83° WSW 21:08:42 10° S
NOSS 3-4 (A) 4.0 21:00:38 10° NNW 21:07:46 55° ENE 21:13:08 20° SE
NOSS 3-4 (C) 4.0 21:00:46 10° NNW 21:07:54 55° ENE 21:13:11 20° SE
Meteor 1-12 Rocket 4.4 21:06:23 10° S 21:12:03 77° W 21:17:49 10° N
Okean 2 3.6 21:08:14 10° N 21:12:20 71° W 21:16:26 10° S
Spot 2 Rocket 3.7 21:07:54 10° S 21:12:59 72° WSW 21:18:03 10° NNW
Cosmos 2123 Rocket 3.9 21:08:42 10° N 21:14:52 74° E 21:21:02 10° S
Cosmos 2297 Rocket 2.8 21:11:51 10° N 21:16:59 35° ENE 21:18:08 32° E
Cosmos 2082 3.8 21:13:23 10° N 21:18:51 52° ENE 21:21:09 32° SE
ATLAS 2A CENTAUR R/B 1.3 21:18:44 10° WNW 21:22:32 41° N 21:22:32 41° N
Resurs 01 Rocket 2.7 21:20:27 10° S 21:24:40 45° W 21:28:54 10° NNW
Cosmos 1346 Rocket 3.3 21:21:34 10° NNW 21:25:29 59° W 21:29:10 12° S
Iridium 4 Rocket 3.4 21:22:36 10° NNE 21:26:32 44° ENE 21:26:32 44° ENE
Palapa 6 Rocket 4.4 21:23:26 10° W 21:29:18 41° SSW 21:31:07 31° SSE
Centaur D-1A AC-32 3.1 21:31:07 10° WNW 21:34:31 29° N 21:34:55 28° NNE
GPS 2-17 Rocket1 2.9 21:33:05 10° WSW 21:37:09 64° S 21:37:09 64° S
Cosmos 1697 Rocket 4.3 21:33:21 10° SW 21:38:25 34° WNW 21:43:30 10° N
TSX-5 4.5 21:40:27 10° NNW 21:46:44 89° W 21:47:33 65° SSE
Cosmos 1802 Rocket 3.9 21:47:05 34° SSE 21:50:02 71° E 21:56:24 10° N
Skynet4D Del rocket 4.4 21:43:56 10° SW 21:50:40 53° SSE 21:51:15 52° SE
Cosmos 1461 3.6 21:49:02 10° NW 21:52:15 46° WNW 21:52:15 46° WNW
GPS 2-18 Rocket1 4.2 21:49:12 10° W 21:52:09 44° WNW 21:52:09 44° WNW
Cosmos 1447 Rocket 4.4 21:47:05 10° N 21:53:26 88° E 21:55:40 44° S
GPS 2-15 Rocket1 3.4 21:49:42 10° W 21:53:50 64° NW 21:53:50 64° NW
Cosmos 1066 Rocket 4.4 21:50:30 10° N 21:55:20 56° NE 21:55:20 56° NE
Cosmos 2016 Rocket 4.1 21:58:34 56° NE 21:58:34 56° NE 22:03:33 10° NNE
ALOS 3.2 21:56:38 32° SSW 21:58:17 44° W 22:02:44 10° NNW
Cosmos 1763 Rocket 4.0 21:53:25 10° SSW 21:58:27 56° WNW 22:03:26 10° N
H-2A R/B 4.1 21:59:20 39° WNW 21:59:20 39° WNW 22:02:14 10° NNW
Cosmos 1980 Rocket 3.6 21:57:16 10° SW 22:02:25 36° WNW 22:07:36 10° N
Cosmos 2173 Rocket 4.3 22:03:06 10° SSW 22:09:23 64° W 22:15:40 10° N
Hubble Space Telescope 4.0 22:36:48 10° W 22:36:50 10° W 22:36:50 10° W
